#timestamp,LO_Frequency,Hit,StdDev 
1597608015.6,286046999.7,N
1597608035.4,286047000.2,N
1597608055.3,286047002.7,N
1597608075.1,286047002.6,N
1597608095.8,286047001.7,N
1597608115.7,286047001.7,N
1597608135.5,286047003.9,Y
1597608155.4,286047002.4,P
1597608175.2,286047000.4,N
1597608195.0,286047000.5,N
1597608195.9,286047000.5,N
1597608215.8,286046999.8,N
1597608235.6,286047000.3,N
1597608255.5,286047002.8,Y
1597608275.3,286047000.4,P
1597608295.1,286047000.3,N
1597608315.9,286047000.0,N
1597608335.7,286047000.1,N
1597608355.5,286047000.2,N
1597608375.4,286046999.9,N
1597608395.2,286046999.8,N
1597608415.1,286047000.4,N
1597608416.0,286047000.4,N
1597608435.8,286046999.8,N
1597608455.6,286046999.9,N
1597608475.5,286046999.8,N
1597608495.3,286047000.1,N
1597608515.1,286046999.8,N
1597608535.9,286046999.9,N
1597608555.7,286047000.5,N
1597608575.6,286047000.1,N
1597608595.4,286047000.0,N
1597608615.2,286047000.1,N
1597608635.1,286047002.7,Y
1597608636.0,286047002.7,P
1597608655.8,286047002.4,N
1597608675.7,286047002.6,N
1597608695.5,286047002.4,N
1597608715.3,286046999.8,N
1597608735.2,286046999.8,N
1597608755.9,286046999.7,N
1597608775.7,286047002.4,N
1597608795.6,286047002.8,N
1597608815.4,286047002.3,N
1597608835.3,286046999.7,N
1597608855.1,286047002.4,N
1597608886.0,286047001.4,E
1597608895.0,286047002.5,N
1597608896.0,286047002.5,P
1597608915.8,286047002.7,P
1597608935.6,286047002.2,Y
1597608955.5,286046999.5,P
1597608975.3,286046999.1,N
1597608995.1,286046999.0,N
1597609015.9,286046999.1,N
1597609035.7,286046999.3,N
1597609055.6,286046999.1,N
1597609075.4,286046996.5,N
1597609095.2,286046996.9,N
1597609115.1,286046999.5,N
1597609116.0,286046999.5,N
1597609135.8,286046999.5,N
1597609155.6,286046999.2,N
1597609175.5,286046996.6,N
1597609195.3,286046996.7,N
1597609215.1,286046996.7,N
1597609235.9,286046996.9,N
1597609255.7,286046996.9,N
1597609275.6,286046996.7,N
1597609295.4,286046996.9,N
1597609315.2,286046999.3,N
1597609335.1,286046999.1,N
1597609336.0,286046999.1,N
1597609355.8,286046999.6,N
1597609375.6,286046996.5,N
1597609395.5,286046999.2,N
1597609415.3,286046999.6,N
1597609435.2,286046998.9,N
1597609455.9,286046998.7,N
1597609475.7,286046999.1,N
1597609495.6,286046999.1,N
1597609515.4,286046999.6,N
1597609535.2,286046997.1,N
1597609555.1,286046997.5,N
1597609556.0,286046997.5,N
1597609575.8,286046997.0,N
1597609595.7,286046999.3,N
1597609615.5,286046998.6,N
1597609635.3,286046998.7,N
1597609655.2,286046998.4,N
1597609675.0,286046998.9,N
1597609675.9,286046998.9,N
1597609695.8,286046999.1,N
1597609715.6,286046998.7,N
1597609735.4,286046998.9,N
1597609755.3,286046999.4,N
1597609775.1,286046998.7,N
1597609776.0,286046998.7,N
1597609795.8,286046998.7,N
1597609815.7,286046998.9,N
1597609835.5,286046999.0,N
1597609855.3,286047001.2,N
1597609875.2,286046999.7,N
1597609895.0,286047001.1,N
1597609895.9,286047001.1,N
1597609915.8,286046998.6,N
1597609935.6,286047000.7,N
1597609955.4,286047000.2,N
1597609975.3,286047000.8,N
1597609995.1,286047000.9,N
1597610015.9,286047000.5,N
1597610035.7,286046999.7,N
1597610055.5,286046998.5,N
1597610075.4,286046999.0,N
1597610095.2,286047001.1,N
1597610115.1,286047001.1,N
1597610116.0,286047001.1,N
1597610135.8,286046998.5,N
1597610155.6,286046998.1,N
1597610175.5,286047001.2,N
1597610195.3,286046998.3,N
1597610215.1,286046998.1,N
1597610235.9,286046999.0,N
1597610255.7,286046998.5,N
1597610275.6,286047001.2,N
1597610295.4,286046998.2,N
1597610315.2,286047001.0,N
1597610335.1,286047000.7,N
1597610336.0,286047000.7,N
1597610355.8,286046998.6,N
1597610375.6,286046998.2,N
1597610395.5,286046998.2,N
1597610415.3,286046999.3,N
1597610435.2,286046999.5,N
1597610455.9,286046996.9,N
1597610475.7,286046999.4,N
1597610495.6,286046998.1,N
1597610515.4,286046998.1,N
1597610535.2,286046998.3,N
1597610555.1,286046999.4,N
1597610556.0,286046999.4,N
1597610575.8,286046999.3,N
1597610595.7,286046999.6,N
1597610615.5,286046999.1,N
1597610635.3,286046996.5,N
1597610655.2,286046996.5,N
1597610675.0,286046999.1,N
1597610675.9,286046999.1,N
1597610695.7,286046996.5,N
1597610715.6,286046999.6,N
1597610735.4,286046997.3,N
1597610755.3,286046995.2,Y
1597610775.1,286046997.8,P
1597610795.8,286046997.8,P
1597610815.7,286046997.7,P
1597610835.5,286046994.9,Y
1597610855.4,286047001.1,P
1597610875.2,286047001.2,N
1597610895.0,286046999.4,N
1597610895.9,286046999.4,N
1597610915.8,286046999.0,N
1597610935.6,286046998.8,N
1597610955.4,286047000.4,N
1597610975.3,286046998.5,N
1597610995.1,286046999.2,N
1597611015.9,286046998.8,N
1597611035.7,286046999.5,N
1597611055.5,286046998.4,N
1597611075.4,286046998.4,N
1597611095.2,286046998.8,N
1597611115.0,286046997.7,N
1597611115.9,286046997.7,N
1597611135.8,286046997.8,N
1597611155.6,286046999.4,N
1597611175.5,286046999.5,N
1597611195.3,286046996.7,Y
1597611215.1,286046999.4,P
1597611235.9,286046999.1,P
1597611255.7,286046998.9,P
1597611275.5,286046999.2,Y
1597611295.4,286046998.7,P
1597611315.2,286046998.2,P
1597611335.1,286047000.9,N
1597611336.0,286047000.9,N
1597611355.8,286047001.2,N
1597611375.6,286046998.2,N
1597611395.5,286047001.1,N
1597611415.3,286046998.4,N
1597611435.1,286046998.5,N
1597611455.9,286047000.7,N
1597611475.7,286047001.1,N
1597611495.6,286046998.5,N
1597611515.4,286046998.7,N
1597611535.2,286046998.8,N
1597611555.1,286046997.0,N
1597611556.0,286046997.0,N
1597611575.8,286046998.3,N
1597611595.6,286046998.4,N
